[[{"header":{"parameterUnit":"m.s-1","parameterCategory":1,"la1":30.2991,"la2":30.254,"lo1":-89.0895,"lo2":-89.0444,"dy":0.0017,"dx":0.0017,"nx":28,"ny":28,"refTime":"2024-05-01T21:00:00:Z","depth":0,"parameterNumber":2,"parameterNumberName":"U-component_of_WINDS"},"data":[0,0,0,0,0,0,0,0,0,0,0,0,0,0,0,0,0,0,0,0,0,0,0,0,0,0,0,0,0,0,0,0,0,0,0,0,0,0,0,0,0,0,0,0,0,0,0,0,0,0,0,0,0,0,0,0,0,0,-3.7662,-3.7662,0,-3.7707,-3.7707,-3.7708,-3.7671,-3.767,-3.7668,-3.7667,-3.7713,-3.7716,-3.7718,0,0,0,0,0,0,0,0,0,0,0,0,0,-3.7546,-3.7549,-3.7662,-3.7662,-3.7663,-3.7706,-3.7707,-3.7708,-3.7672,-3.767,-3.7668,-3.7666,-3.7712,-3.7715,-3.7718,0,0,0,0,0,0,0,0,0,0,0,0,0,-3.7594,-3.755,-3.7662,-3.765,-3.7649,-3.7706,-3.7707,-3.7708,-3.7672,-3.767,-3.7667,-3.7665,-3.7711,-3.7715,-3.7719,-3.7789,0,0,-3.7731,-3.7733,0,0,0,0,0,0,0,0,-3.7592,-3.7599,-3.7651,-3.7651,-3.765,-3.7681,-3.7683,-3.7735,-3.7673,-3.7663,-3.7667,-3.7664,-3.7704,-3.7709,-3.7722,-3.7792,-3.7794,-3.7731,-3.7734,-3.7735,-3.7737,0,0,0,0,0,0,0,-3.7589,-3.7597,-3.7679,-3.7652,-3.7652,-3.7643,-3.7648,-3.7693,-3.7696,-3.7664,-3.7662,-3.7667,-3.7704,-3.7718,-3.7723,-3.7794,-3.7731,-3.7735,-3.7737,-3.7739,-3.7926,-3.7928,0,0,0,0,0,0,-3.7586,-3.7594,-3.7678,-3.7681,-3.7615,-3.7647,-3.7652,-3.7674,-3.7696,-3.7697,-3.7669,-3.7666,-3.7713,-3.7718,-3.7724,-3.7809,-3.7735,-3.7739,-3.7741,-3.7923,-3.7926,-3.7929,0,0,0,0,0,0,-3.7584,-3.7594,-3.7676,-3.7637,-3.7647,-3.7652,-3.7676,-3.7676,-3.769,-3.77,-3.77,-3.7684,-3.7711,-3.7719,-3.7774,-3.781,-3.7741,-3.7745,-3.792,-3.7924,-3.7928,-3.7978,0,0,0,0,0,0,-3.7581,-3.7593,-3.762,-3.7638,-3.7649,-3.7724,-3.7678,-3.7678,-3.7697,-3.7693,-3.7713,-3.7714,-3.771,-3.7768,-3.7778,-3.7814,-3.7748,-3.7917,-3.7922,-3.7926,-3.7973,-3.7983,-3.7991,0,0,0,0,0,-3.7577,-3.7632,-3.7621,-3.7631,-3.7682,-3.7726,-3.7733,-3.7726,-3.77,-3.7727,-3.7733,-3.7714,-3.7805,-3.7774,-3.7785,-3.7823,-3.7914,-3.792,-3.7926,-3.7969,-3.7981,-3.7991,0,0,0,0,0,0,-3.7617,-3.7634,-3.7622,-3.7684,-3.7704,-3.772,-3.7753,-3.774,-3.7767,-3.7762,-3.7753,-3.7758,-3.7816,-3.7825,-3.7791,-3.7893,-3.7855,-3.7864,-3.7884,-3.7896,-3.7905,-3.7901,-3.7751,0,0,0,0,0,-3.7633,-3.7668,-3.7681,-3.7735,-3.7745,-3.7748,-3.7767,-3.7761,-3.7781,-3.7789,-3.78,-3.782,-3.7854,-3.7876,-3.7907,-3.7975,-3.7979,-3.8007,-3.8016,-3.8023,-3.803,-3.8067,-3.808,-3.7948,-3.7948,-3.7948,0,0,-3.7667,-3.7681,-3.7703,-3.7743,-3.7758,-3.7794,-3.7755,-3.7795,-3.7822,-3.7795,-3.7848,-3.7857,-3.7879,-3.7941,-3.7969,-3.7951,-3.8068,-3.8031,-3.8037,-3.8039,-3.8075,-3.8087,-3.8098,-3.7952,-3.7951,-3.7951,0,0,-3.7747,-3.7761,-3.7807,-3.7823,-3.7846,-3.7848,-3.7859,-3.7878,-3.7883,-3.7936,-3.7917,-3.795,-3.8007,-3.8024,-3.804,-3.813,-3.8113,-3.8141,-3.8188,-3.8225,-3.8235,-3.8244,-3.8276,-3.8287,-3.8148,-3.8148,-3.8148,0,-3.7785,-3.7839,-3.7833,-3.7874,-3.7893,-3.7872,-3.7919,-3.7935,-3.7968,-3.7981,-3.7961,-3.8033,-3.8047,-3.8113,-3.8135,-3.8149,-3.8162,-3.8137,-3.8234,-3.8243,-3.8252,-3.8281,-3.8293,-3.8151,-3.8151,-3.815,-3.815,0,-3.7885,-3.7923,-3.7958,-3.799,-3.8013,-3.8058,-3.8059,-3.8083,-3.8076,-3.8081,-3.8136,-3.8152,-3.8186,-3.8202,-3.8195,-3.8268,-3.8256,-3.8235,-3.8197,-3.8267,-3.8295,-3.8307,-3.8155,-3.8154,-3.8153,-3.8153,0,0,-3.7988,-3.8018,-3.8031,-3.8046,-3.8071,-3.81,-3.8145,-3.8179,-3.82,-3.8224,-3.8261,-3.8312,-3.8293,-3.8312,-3.8307,-3.834,-3.841,-3.8315,-3.8315,-3.8331,-3.8491,-3.8505,-3.8519,-3.84,-3.8402,-3.8404,-3.8489,0,-3.8068,-3.8145,-3.8142,-3.8213,-3.8249,-3.8231,-3.827,-3.829,-3.8296,-3.8328,-3.8335,-3.8371,-3.8343,-3.8355,-3.8386,-3.8394,-3.8441,-3.8389,-3.8434,-3.8436,-3.8427,-3.8533,-3.8548,-3.8627,-3.85,-3.8502,-3.8503,0,-3.8171,-3.8199,-3.8274,-3.8295,-3.831,-3.8345,-3.8377,-3.8407,-3.843,-3.8433,-3.8455,-3.8446,-3.8492,-3.8455,-3.8519,-3.8483,-3.8502,-3.8509,-3.8512,-3.8514,-3.8472,-3.8537,-3.8652,-3.8664,-3.852,-3.8519,-3.8518,0,-3.8238,-3.8294,-3.8346,-3.836,-3.8386,-3.8411,-3.8424,-3.8445,-3.8466,-3.8495,-3.8509,-3.8542,-3.856,-3.8587,-3.8588,-3.8561,-3.8653,-3.8615,-3.8656,-3.8656,-3.8673,-3.8672,-3.8792,-3.8689,-3.8689,-3.8689,-3.8688,0,-3.8326,-3.8373,-3.8377,-3.8409,-3.8461,-3.8458,-3.851,-3.852,-3.854,-3.8574,-3.8562,-3.8594,-3.8594,-3.8628,-3.8629,-3.8682,-3.8691,-3.8694,-3.8693,-3.8694,-3.8693,-3.8704,-3.8698,-3.8692,-3.8691,-3.869,-3.869,0,-3.8408,-3.8413,-3.8469,-3.849,-3.8497,-3.8534,-3.8552,-3.8584,-3.859,-3.8634,-3.8644,-3.8654,-3.8693,-3.8697,-3.8743,-3.8744,-3.8807,-3.8801,-3.8799,-3.8797,-3.8837,-3.8833,-3.8967,-3.8984,-3.8871,-3.8873,-3.8873,0,-3.8463,-3.8499,-3.8524,-3.8546,-3.856,-3.8596,-3.8618,-3.8617,-3.8641,-3.8672,-3.8699,-3.8738,-3.8767,-3.8832,-3.8843,-3.8878,-3.8873,-3.8918,-3.8878,-3.8878,-3.8872,-3.8869,-3.8873,-3.8924,-3.8925,-3.8926,-3.8927,0,-3.856,-3.8562,-3.8593,-3.8627,-3.8653,-3.868,-3.8704,-3.8724,-3.8727,-3.8754,-3.8794,-3.8818,-3.8865,-3.8903,-3.8939,-3.8952,-3.8941,-3.894,-3.8951,-3.8951,-3.8948,-3.8949,-3.8818,-3.8936,-3.8936,-3.8935,-3.8934,-3.8934,-3.863,-3.8661,-3.8684,-3.872,-3.8739,-3.8763,-3.8793,-3.8804,-3.8837,-3.8875,-3.8874,-3.8918,-3.8943,-3.8989,-3.9006,-3.9041,-3.9026,-3.9042,-3.9046,-3.9049,-3.9053,-3.8944,-3.9048,-3.9047,-3.9047,-3.9047,-3.9047,0,-3.8725,-3.874,-3.8774,-3.8809,-3.8838,-3.8826,-3.8853,-3.8878,-3.8917,-3.8941,-3.8971,-3.9018,-3.9056,-3.9072,-3.9109,-3.9134,-3.913,-3.9144,-3.9141,-3.9144,-3.9065,-3.9051,-3.9147,-3.9147,-3.9147,-3.9147,-3.9147,-3.9147,-3.8778,-3.883,-3.8834,-3.8896,-3.891,-3.8953,-3.897,-3.8993,-3.9012,-3.9064,-3.9096,-3.9106,-3.9127,-3.9166,-3.92,-3.9204,-3.9218,-3.9234,-3.9235,-3.916,-3.915,-3.914,-3.9127,-3.9237,-3.9237,-3.9312,-3.9313,-3.9313]},{"header":{"parameterUnit":"m.s-1","parameterCategory":1,"la1":30.2991,"la2":30.254,"lo1":-89.0895,"lo2":-89.0444,"dy":0.0017,"dx":0.0017,"nx":28,"ny":28,"refTime":"2024-05-01T21:00:00:Z","depth":0,"parameterNumber":3,"parameterNumberName":"V-component_of_WINDS"},"data":[0,0,0,0,0,0,0,0,0,0,0,0,0,0,0,0,0,0,0,0,0,0,0,0,0,0,0,0,0,0,0,0,0,0,0,0,0,0,0,0,0,0,0,0,0,0,0,0,0,0,0,0,0,0,0,0,0,0,2.4175,2.4174,0,2.4122,2.4122,2.4121,2.4084,2.4084,2.4084,2.4083,2.4026,2.4025,2.4024,0,0,0,0,0,0,0,0,0,0,0,0,0,2.424,2.4239,2.4175,2.4174,2.4173,2.4122,2.4122,2.4121,2.4084,2.4084,2.4084,2.4083,2.4026,2.4025,2.4023,0,0,0,0,0,0,0,0,0,0,0,0,0,2.4202,2.4239,2.4175,2.4149,2.4146,2.4123,2.4122,2.4121,2.4084,2.4084,2.4084,2.4083,2.4027,2.4025,2.4023,2.402,0,0,2.4017,2.4017,0,0,0,0,0,0,0,0,2.4204,2.42,2.4153,2.4151,2.4148,2.4109,2.4124,2.4087,2.4084,2.4108,2.4083,2.4083,2.4054,2.405,2.4041,2.4017,2.4015,2.4017,2.4016,2.4015,2.4015,0,0,0,0,0,0,0,2.4207,2.4202,2.4154,2.4153,2.4149,2.4139,2.4133,2.4117,2.4084,2.4106,2.4103,2.4097,2.4052,2.4043,2.4039,2.4014,2.4017,2.4016,2.4015,2.4014,2.3987,2.3988,0,0,0,0,0,0,2.4214,2.4204,2.4155,2.4152,2.4176,2.4138,2.4132,2.4122,2.4084,2.4078,2.4098,2.4096,2.4046,2.4041,2.4037,2.4032,2.4015,2.4014,2.4013,2.3987,2.3987,2.3988,0,0,0,0,0,0,2.4216,2.421,2.4158,2.4178,2.417,2.4138,2.4127,2.4121,2.4112,2.4078,2.4072,2.4094,2.4046,2.404,2.4025,2.4029,2.4013,2.4011,2.3986,2.3987,2.3987,2.4021,0,0,0,0,0,0,2.4218,2.4211,2.421,2.4178,2.4169,2.4147,2.4127,2.4121,2.4109,2.4106,2.4073,2.4067,2.4045,2.4028,2.4023,2.4027,2.401,2.3986,2.3987,2.3987,2.402,2.4023,2.4026,0,0,0,0,0,2.422,2.422,2.421,2.4204,2.4167,2.4148,2.4143,2.4118,2.411,2.4108,2.4087,2.4068,2.403,2.4027,2.4021,2.4024,2.3985,2.3986,2.3987,2.4018,2.4022,2.4026,0,0,0,0,0,0,2.4252,2.4215,2.4204,2.4193,2.4174,2.4142,2.4139,2.4123,2.4105,2.4103,2.4072,2.4065,2.4054,2.4037,2.4035,2.402,2.4005,2.4005,2.4031,2.4035,2.4038,2.4042,2.4008,0,0,0,0,0,2.4258,2.4246,2.4214,2.4208,2.42,2.4171,2.4162,2.4145,2.4123,2.4114,2.4091,2.407,2.4054,2.4043,2.4026,2.4017,2.401,2.4016,2.4019,2.4022,2.4022,2.4018,2.4021,2.3991,2.3991,2.3991,0,0,2.4269,2.4248,2.4242,2.4214,2.4197,2.4185,2.4164,2.4152,2.4143,2.4112,2.4098,2.408,2.4055,2.4044,2.4038,2.403,2.4029,2.4023,2.4026,2.4024,2.402,2.4022,2.4025,2.3992,2.3991,2.3991,0,0,2.4285,2.4267,2.4261,2.4246,2.4221,2.4202,2.4201,2.4171,2.4159,2.4145,2.4122,2.411,2.4082,2.4065,2.4053,2.4064,2.4047,2.4059,2.4076,2.4072,2.4074,2.4076,2.4082,2.4084,2.406,2.406,2.406,0,2.4302,2.4284,2.426,2.425,2.4239,2.4212,2.4206,2.4191,2.4161,2.4154,2.4146,2.4111,2.4092,2.4077,2.4081,2.4071,2.4069,2.4063,2.4076,2.4078,2.4079,2.4084,2.4086,2.4062,2.4061,2.4061,2.4061,0,2.4307,2.4295,2.4293,2.4268,2.4256,2.4248,2.4222,2.4213,2.4198,2.418,2.4166,2.4142,2.4121,2.4116,2.41,2.41,2.4096,2.4082,2.4067,2.4085,2.4088,2.409,2.4064,2.4063,2.4063,2.4062,0,0,2.434,2.4303,2.4303,2.4292,2.4263,2.4253,2.4244,2.4225,2.4218,2.4199,2.4191,2.4168,2.4157,2.4143,2.4125,2.4121,2.4134,2.4108,2.4107,2.4115,2.4134,2.4145,2.4147,2.4122,2.4123,2.4123,2.4136,0,2.4352,2.4335,2.4314,2.4305,2.4294,2.427,2.4262,2.4243,2.4227,2.4215,2.4196,2.4181,2.4166,2.4158,2.4154,2.4133,2.4137,2.4132,2.4114,2.4114,2.4122,2.4149,2.416,2.4174,2.4138,2.4138,2.4138,0,2.4363,2.4348,2.4338,2.4313,2.4307,2.4301,2.4282,2.4271,2.425,2.4238,2.4224,2.4206,2.4195,2.4181,2.4166,2.4163,2.4155,2.4144,2.4144,2.4141,2.4127,2.4148,2.4177,2.418,2.414,2.414,2.414,0,2.439,2.4366,2.4358,2.4349,2.4319,2.4315,2.4302,2.4281,2.4271,2.4254,2.4248,2.423,2.422,2.4206,2.4183,2.4175,2.417,2.4155,2.4161,2.4161,2.4161,2.4161,2.419,2.4154,2.4154,2.4154,2.4154,0,2.4405,2.44,2.4369,2.4364,2.4358,2.4334,2.4329,2.4313,2.4295,2.4286,2.4263,2.4255,2.4225,2.4214,2.4195,2.4186,2.4181,2.4172,2.4167,2.4174,2.4176,2.4169,2.4167,2.4155,2.4155,2.4155,2.4154,0,2.4434,2.4413,2.4402,2.4376,2.4369,2.4366,2.4343,2.4337,2.432,2.4309,2.4305,2.4278,2.4263,2.4239,2.4217,2.4205,2.42,2.4191,2.4207,2.4204,2.4212,2.4212,2.4238,2.424,2.4203,2.4203,2.4203,0,2.4445,2.4442,2.4415,2.4409,2.4397,2.4387,2.4377,2.4353,2.4344,2.4322,2.4318,2.4303,2.4289,2.4267,2.4245,2.4228,2.4219,2.423,2.4217,2.4225,2.4221,2.4222,2.4222,2.4233,2.4233,2.4234,2.4234,0,2.4469,2.4459,2.4448,2.4433,2.4423,2.4409,2.4394,2.439,2.4363,2.4354,2.434,2.4329,2.4308,2.4293,2.4274,2.4259,2.4243,2.4239,2.4239,2.4247,2.4257,2.4253,2.4216,2.4238,2.4238,2.4237,2.4237,2.4237,2.449,2.4486,2.4468,2.4456,2.4443,2.443,2.4424,2.4407,2.4396,2.4378,2.4364,2.4351,2.4332,2.4304,2.4291,2.4281,2.4273,2.4273,2.4274,2.4274,2.4278,2.4258,2.4277,2.4277,2.4277,2.4277,2.4277,0,2.4513,2.4501,2.449,2.4472,2.4463,2.4449,2.4432,2.4425,2.4415,2.4399,2.4387,2.4371,2.4357,2.4335,2.4318,2.4314,2.4306,2.4311,2.4311,2.4309,2.4285,2.4287,2.4318,2.4318,2.4318,2.4318,2.4318,2.4318,2.4525,2.4518,2.4507,2.4494,2.4481,2.447,2.4462,2.445,2.4437,2.4422,2.441,2.4397,2.4378,2.4361,2.4347,2.4341,2.4336,2.4344,2.4335,2.4314,2.431,2.4306,2.4308,2.4343,2.4343,2.436,2.436,2.436]}]]